Weather in Medvedevo

Russia / Republic of Crimea     45°23′08″N   33°00′06″E
temp.,
°C
wind,
m/s
gust,
m/s
humid.,
%
clouds,
%
prec.,
mm/h
press.,
hPa
HPBL,
m
14 june, mon
mon1400:00+18s488399 0.4 1009241
03:00+18s598175 0.4 1008281
06:00+18sse5981100 0.1 1008544
09:00+19se51071100 0.6 1009948
12:00+19s61082100 1.0 1010785
15:00+22ssw56637 1.4 1010882
18:00+21nw326351 0.0 1010667
21:00+16nnw349075 0.5 101174
15 june, tue
tue1500:00+16n3592100 0.3 101187
03:00+17n4693100 0.3 1010134
06:00+17ne51089100 0.4 1009297
09:00+22ne71061100 2.1 1009608
12:00+25e91155100 1.1 10081775
15:00+19ene5982100 6.3 1008387
18:00+20sse7972100 1.1 1008711
21:00+17s48839 1.1 1008236
16 june, wed
wed1600:00+16s34829 0.0 1009100
03:00+16ssw1179100 0.0 100951
06:00+17s2375100 0.0 100989
09:00+16sse4594100 2.5 1011285
12:00+16w1188100 2.9 1011207
15:00+19nnw227394 3.1 1011701
18:00+20nw217020 0.5 1010638
21:00+16wnw22862 0.5 101242
17 june, thu
thu1700:00+16nw22880 0.0 101122
03:00+16nw1288100 0.0 101117
06:00+17nw118694 0.0 101117
09:00+21n2270100 0.0 1012741
12:00+23nne4366100 1.3 1013912
15:00+23wnw1163100 2.8 1013901
18:00+22nw4472100 0.4 1014534
21:00+19sw3384100 1.0 101472
18 june, fri
fri1800:00+18sw3588100 0.1 1014127
03:00+18sw349247 0.1 101473
06:00+18s22890 0.0 101544
09:00+22ese23625 0.0 1015818
12:00+26ene354951 0.1 10151807
15:00+25nne4758100 0.4 1014583
18:00+25e795288 0.3 10151407
21:00+21e712733 0.3 1016572